Weather History for MMTJ - November, 2012

Change the Weather History Date:

Thursday, November 29, 2012

  Actual Average Record
Temperature  
Mean Temperature 65 °F -  
Max Temperature 73 °F 67 °F 84 °F (1999)
Min Temperature 57 °F 46 °F 39 °F (2010)
Growing Degree Days 15 (Base 50)    
Moisture  
Dew Point 54 °F    
Average Humidity 75    
Maximum Humidity 94    
Minimum Humidity 57    
Precipitation  
Precipitation 0.00 in - - ()
Sea Level Pressure  
Sea Level Pressure 30.21 in    
Wind  
Wind Speed 4 mph ()    
Max Wind Speed 9 mph    
Max Gust Speed -    
Visibility 5.5 miles    
Events      
Averages and records for this station are not official NWS values.
T = Trace of Precipitation, MM = Missing Value Source: Averaged Metar Reports

Daily Weather History Graph

Daily Weather History Graph

Search for Another Location

Airport or City:

Trip Planner

Search our weather history database for the weather conditions in past years. The results will help you decide how hot, cold, wet, or windy it might be!

Date:

Astronomy

Nov. 29, 2012 Rise Set
Actual Time 6:30 AM PST 4:42 PM PST
Civil Twilight 6:03 AM PST 5:08 PM PST
Nautical Twilight 5:33 AM PST 5:39 PM PST
Astronomical Twilight 5:03 AM PST 6:08 PM PST
Moon 5:49 PM PST (11/29) 7:20 AM PST (11/29)
Length of Visible Light 11h 05m
Length of Day
10h 11m
Full, 99% of the Moon is Illuminated
Nov 29
Full
Dec 6
Last Quarter
Dec 13
New
Dec 19
First Quarter
Dec 28
Full

Hourly Weather History & Observations

Time (PST) Temp. Dew Point Humidity Pressure Visibility Wind Dir Wind Speed Gust Speed Precip Events Conditions
12:42 AM 57.2 °F 46.4 °F 67% 30.26 in 5.0 mi SSE 4.6 mph - N/A   Mostly Cloudy
1:51 AM 57.2 °F 48.2 °F 72% 30.23 in 5.0 mi SE 3.5 mph - N/A   Mostly Cloudy
2:40 AM 57.2 °F 48.2 °F 72% 30.23 in 5.0 mi SE 3.5 mph - N/A   Mostly Cloudy
3:49 AM 59.0 °F 48.2 °F 67% 30.25 in 5.0 mi East 4.6 mph - N/A   Mostly Cloudy
4:44 AM 59.0 °F 48.2 °F 67% 30.21 in 5.0 mi ESE 8.1 mph - N/A   Mostly Cloudy
5:51 AM 59.0 °F 48.2 °F 67% 30.22 in 6.0 mi SE 6.9 mph - N/A   Mostly Cloudy
6:44 AM 59.0 °F 48.2 °F 67% 30.24 in 6.0 mi SE 5.8 mph - N/A   Overcast
7:47 AM 62.6 °F 48.2 °F 59% 30.24 in 5.0 mi SSE 5.8 mph - N/A   Overcast
8:42 AM 60.8 °F 53.6 °F 77% 30.25 in 6.0 mi East 5.8 mph - N/A   Overcast
9:44 AM 64.4 °F 53.6 °F 68% 30.26 in 6.0 mi East 5.8 mph - N/A   Overcast
10:44 AM 68.0 °F 55.4 °F 64% 30.24 in 7.0 mi East 3.5 mph - N/A   Overcast
11:48 AM 69.8 °F 55.4 °F 60% 30.21 in 8.0 mi WSW 9.2 mph - N/A   Mostly Cloudy
12:40 PM 71.6 °F 57.2 °F 60% 30.26 in 8.0 mi South 3.5 mph - N/A   Scattered Clouds
1:41 PM 73.4 °F 57.2 °F 57% 30.16 in 8.0 mi WSW 9.2 mph - N/A   Scattered Clouds
2:48 PM 66.2 °F 57.2 °F 73% 30.16 in 8.0 mi West 9.2 mph - N/A   Partly Cloudy
3:50 PM 66.2 °F 57.2 °F 73% 30.20 in 7.0 mi West 9.2 mph - N/A   Scattered Clouds
4:44 PM 64.4 °F 57.2 °F 77% 30.17 in 6.0 mi WNW 6.9 mph - N/A   Mostly Cloudy
5:44 PM 62.6 °F 57.2 °F 82% 30.15 in 6.0 mi Calm Calm - N/A   Partly Cloudy
6:51 PM 60.8 °F 57.2 °F 88% 30.20 in 6.0 mi Calm Calm - N/A   Clear
7:44 PM 59.0 °F 57.2 °F 94% 30.18 in 3.0 mi Calm Calm - N/A   Haze
8:45 PM 59.0 °F 57.2 °F 94% 30.18 in 5.0 mi Calm Calm - N/A   Clear
9:43 PM 59.0 °F 57.2 °F 94% 30.20 in 6.0 mi Calm Calm - N/A   Clear
10:43 PM 57.2 °F 55.4 °F 94% 30.20 in 0.8 mi North 3.5 mph - N/A   Mist
11:12 PM 59.0 °F 57.2 °F 94% 30.20 in 1.5 mi North 3.5 mph - N/A   Overcast
11:40 PM 59.0 °F 55.4 °F 88% 30.19 in 3.0 mi East 3.5 mph - N/A   Mostly Cloudy